DW9396 Weather Reports


Display with metric or nautical units.
time (UTC)temp
F
wind
direction
speed
MPH
gust
MPH
rain 1hr
in
rain 24hr
in
rain mn
in
humidity
%
barometer
mb
20260901070036 54 145 0.0 0.0 0.00 0.00 0.00 73 1009.4
20260901064540 55 146 0.0 0.0 0.00 0.00 0.00 72 1009.4
20260901063033 56 145 0.0 2.0 0.00 0.00 0.00 71 1009.2
20260901061534 56 134 0.0 2.0 0.00 0.00 0.00 71 1009.2
20260901060033 56 131 0.0 0.0 0.00 0.00 0.00 70 1009.1
20260901054534 57 103 0.0 0.0 0.00 0.00 0.00 70 1009.2
20260901053033 57 104 0.0 0.0 0.00 0.00 0.00 69 1009.3
20260901051533 57 60 0.0 0.0 0.00 0.00 0.00 69 1009.3
20260901050033 58 61 0.0 1.0 0.00 0.00 0.00 68 1009.3
20260901044545 59 27 0.0 0.0 0.00 0.00 0.00 67 1009.3
20260901043041 59 27 0.0 0.0 0.00 0.00 0.00 66 1009.3
20260901041544 60 27 0.0 0.0 0.00 0.00 0.00 64 1009.1
20260901040037 61 24 0.0 0.0 0.00 0.00 0.00 64 1008.9
20260901034532 62 24 0.0 1.0 0.00 0.00 0.00 63 1008.8
20260901033030 63 25 0.0 0.0 0.00 0.00 0.00 60 1008.7
20260901031531 64 24 0.0 0.0 0.00 0.00 0.00 57 1008.5
20260901030029 65 24 0.0 0.0 0.00 0.00 0.00 54 1008.3
20260901024529 66 25 0.0 0.0 0.00 0.00 0.00 53 1008.1
20260901023038 68 24 0.0 0.0 0.00 0.00 0.00 51 1008.1
20260901021534 69 25 0.0 0.0 0.00 0.00 0.00 49 1008.0
20260901020028 70 25 0.0 1.0 0.00 0.00 0.00 47 1008.1
20260901014526 71 23 0.0 0.0 0.00 0.00 0.00 46 1008.1
20260901013028 73 24 0.0 2.0 0.00 0.00 0.00 43 1008.2
20260901011525 74 24 0.0 2.0 0.00 0.00 0.00 41 1008.1
20260901010024 76 346 0.0 2.0 0.00 0.00 0.00 39 1008.1
20260901004524 77 301 0.0 2.0 0.00 0.00 0.00 37 1008.0
20260901003025 77 1 0.0 3.0 0.00 0.00 0.00 37 1008.0
20260901001524 77 295 0.0 2.0 0.00 0.00 0.00 39 1008.1
20260901000023 78 308 0.0 6.0 0.00 0.00 0.00 38 1008.2
20260831234524 78 204 0.0 3.0 0.00 0.00 0.00 37 1008.1
20260831233024 80 283 1.0 4.0 0.00 0.00 0.00 34 1008.1
20260831231530 81 169 0.0 2.0 0.00 0.00 0.00 32 1008.1
20260831230034 82 283 0.0 2.0 0.00 0.00 0.00 29 1008.1
20260831224524 83 249 1.0 6.0 0.00 0.00 0.00 31 1008.2
20260831223023 83 354 1.0 4.0 0.00 0.00 0.00 31 1008.4
20260831221521 82 281 1.0 3.0 0.00 0.00 0.00 34 1008.5
20260831220020 82 1 1.0 5.0 0.00 0.00 0.00 35 1008.6
20260831214519 82 319 0.0 3.0 0.00 0.00 0.00 36 1008.7
20260831213019 83 298 1.0 4.0 0.00 0.00 0.00 34 1008.8
20260831211529 83 288 1.0 3.0 0.00 0.00 0.00 35 1008.8
20260831210018 83 307 2.0 0.0 0.00 0.00 0.00 35 1008.8
20260831204555 85 286 0.0 3.0 0.00 0.00 0.00 33 1008.6
20260831203054 85 19 0.0 5.0 0.00 0.00 0.00 33 1008.6
20260831201541 86 297 0.0 3.0 0.00 0.00 0.00 32 1008.7
20260831200038 85 4 1.0 4.0 0.00 0.00 0.00 31 1008.7
20260831194554 86 295 0.0 3.0 0.00 0.00 0.00 31 1008.7
20260831193038 87 349 1.0 6.0 0.00 0.00 0.00 29 1008.8
20260831191538 87 162 0.0 3.0 0.00 0.00 0.00 30 1008.9
20260831190040 87 295 0.0 3.0 0.00 0.00 0.00 31 1009.0
20260831184535 86 279 0.0 2.0 0.00 0.00 0.00 30 1009.0
20260831183031 84 297 0.0 3.0 0.00 0.00 0.00 33 1009.0
20260831181529 84 354 1.0 4.0 0.00 0.00 0.00 35 1009.1
20260831180029 83 290 1.0 3.0 0.00 0.00 0.00 33 1009.0
20260831174529 82 307 0.0 2.0 0.00 0.00 0.00 36 1009.1
20260831173025 81 297 1.0 2.0 0.00 0.00 0.00 37 1009.0
20260831171518 80 320 0.0 3.0 0.00 0.00 0.00 39 1009.1
20260831170015 79 167 0.0 1.0 0.00 0.00 0.00 42 1009.1
20260831164511 78 163 0.0 1.0 0.00 0.00 0.00 43 1009.1
20260831163013 76 139 0.0 1.0 0.00 0.00 0.00 50 1009.0
20260831161515 74 139 0.0 0.0 0.00 0.00 0.00 51 1009.1
20260831160003 70 139 0.0 1.0 0.00 0.00 0.00 54 1009.2
20260831154606 67 139 0.0 2.0 0.00 0.00 0.00 57 1009.3
20260831153052 65 139 0.0 1.0 0.00 0.00 0.00 59 1009.4
20260831151550 61 138 1.0 2.0 0.00 0.00 0.00 64 1009.4
20260831150047 58 134 0.0 3.0 0.00 0.00 0.00 68 1009.2
20260831144547 57 132 0.0 3.0 0.00 0.00 0.00 69 1009.2
20260831143053 56 127 0.0 4.0 0.00 0.00 0.00 70 1009.1
20260831141548 55 141 0.0 2.0 0.00 0.00 0.00 71 1009.1
20260831140046 55 148 1.0 4.0 0.00 0.00 0.00 71 1009.1
20260831134546 55 135 0.0 3.0 0.00 0.00 0.00 71 1009.0
20260831133045 55 162 0.0 2.0 0.00 0.00 0.00 70 1008.9
20260831131550 55 135 0.0 2.0 0.00 0.00 0.00 70 1008.9
20260831130042 55 141 1.0 3.0 0.00 0.00 0.00 70 1008.8
20260831124543 56 132 0.0 2.0 0.00 0.00 0.00 69 1008.9
20260831123041 55 148 0.0 3.0 0.00 0.00 0.00 70 1008.9
20260831121541 56 160 0.0 3.0 0.00 0.00 0.00 70 1008.8
20260831120040 56 129 0.0 2.0 0.00 0.00 0.00 70 1008.8
20260831114538 56 136 0.0 3.0 0.00 0.00 0.00 70 1008.9
20260831113037 56 123 0.0 3.0 0.00 0.00 0.00 69 1009.0
20260831111535 56 162 0.0 2.0 0.00 0.00 0.00 69 1009.0
20260831110038 56 127 0.0 3.0 0.00 0.00 0.00 69 1008.9
20260831104538 57 138 1.0 4.0 0.00 0.00 0.00 69 1008.9
20260831103032 56 123 0.0 3.0 0.00 0.00 0.00 69 1008.8
20260831101534 57 145 1.0 3.0 0.00 0.00 0.00 68 1008.9
20260831100029 57 143 1.0 3.0 0.00 0.00 0.00 68 1008.8
20260831094528 57 138 1.0 3.0 0.00 0.00 0.00 68 1008.8
20260831093026 57 142 0.0 3.0 0.00 0.00 0.00 68 1008.7
20260831091525 57 142 1.0 3.0 0.00 0.00 0.00 68 1008.7
20260831090026 57 149 0.0 3.0 0.00 0.00 0.00 68 1008.8
20260831084520 58 141 0.0 2.0 0.00 0.00 0.00 66 1008.8
20260831083034 59 158 0.0 3.0 0.00 0.00 0.00 66 1008.9
20260831081516 59 148 0.0 4.0 0.00 0.00 0.00 66 1009.1
20260831080016 59 228 0.0 4.0 0.00 0.00 0.00 65 1009.2
20260831074512 59 195 0.0 4.0 0.00 0.00 0.00 65 1009.3
20260831073015 59 195 1.0 4.0 0.00 0.00 0.00 65 1009.2
20260831071510 59 195 1.0 3.0 0.00 0.00 0.00 65 1009.2